Location: *
(58.4167°N, 22.5000°E)
Time: 20:47:27
(UTC+00:00)

Cosmos 1452 Rocket - Pass Details

Date: 22 September 2019
Orbit: 767 x 775 km, 74.1° (Epoch: 18 October)

Event Time Altitude Azimuth Distance (km) Brightness Sun altitude
Rises 18:22:38 0° 181° (S) 3,229 6.5 -15.0°
Reaches altitude 10° 18:25:08 10° 173° (S) 2,307 5.7 -15.3°
Maximum altitude 18:29:56 38° 106° (ESE) 1,159 3.9 -15.8°
Drops below altitude 10° 18:34:47 10° 40° (NE) 2,322 5.9 -16.4°
Sets 18:37:17 0° 33° (NNE) 3,254 6.7 -16.7°
